カタログに戻る

STARLINK-3194

運用中通信VLEO
NORAD 49758·PAYLOAD·🇺🇸 United States

打ち上げ Dec 2, 2021 から Cape Canaveral Space Force Station

Loading…

次のパス (今後24時間)

TLE

最新Source: CelesTrak SupGP

元期: Sep 14, 2026, 13:29 UTC

1 49758C 21115AL  26257.56229167 -.00010620  00000+0 -31389-3 0  2577
2 49758  53.1606 357.1465 0001270  73.7874  92.2512 15.34384723    15

AllMySatでSTARLINK-3194をリアルタイム追跡

Download on the App Store